Location: Hamburg
(53.5500°N, 10.0000°E)
Time: 13:06:45
(UTC+02:00)

Vanguard 1 Rocket - Visible Passes

Search period start: 19 October 2017 00:00
Search period end: 29 October 2017 00:00
Orbit: 655 x 4222 km, 34.3° (Epoch: 18 October)

Date Brightness Start Highest point End Pass type
(mag) Time Alt. Az. Time Alt. Az. Time Alt. Az.
25 Oct 10.2 07:24:04 10° SSW 07:27:43 13° S 07:30:43 10° SSE visible
26 Oct 10.5 06:12:44 10° SSW 06:16:55 13° S 06:20:18 10° SE visible
27 Oct 10.7 05:02:31 10° S 05:05:51 11° SSE 05:08:43 10° SE visible
27 Oct 10.1 07:25:22 10° SW 07:30:39 16° S 07:34:37 10° SE visible
28 Oct 10.3 06:13:15 10° SSW 06:19:51 17° S 06:24:38 10° SE visible
